Location: Dittelbrunn
(50.0738°N, 10.2196°E)
Time: 04:51:48
(UTC+00:00)

SJ 16-02 - Pass Details

Date: 18 September 2020
Orbit: 606 x 616 km, 75.0° (Epoch: 20 October)

Event Time Altitude Azimuth Distance (km) Brightness Sun altitude
Rises 17:58:21 0° 206° (SSW) 2,854 5.0 -6.1°
Reaches altitude 10° 18:00:35 10° 209° (SSW) 1,954 4.2 -6.5°
Maximum altitude 18:04:56 72° 293° (WNW) 643 1.7 -7.1°
Drops below altitude 10° 18:09:19 10° 19° (NNE) 1,968 3.9 -7.8°
Sets 18:11:35 0° 21° (NNE) 2,877 4.7 -8.2°
